This is the latest recevied weather packets stored in our database for station/object 4S6DRJ-13. If no packets are shown the sender has not sent any weather packets the latest 10 day(s).
| Time | Temp. | Humidity | Pressure | Rain* | Wind** | Luminosity | Snow |
|---|---|---|---|---|---|---|---|
| 1788369651 | 27.78° C | 86% | 1011.2 hPa | 0 mm | 0 m/s | 0 W/m² | - |
| 1788369591 | 27.78° C | 86% | 1011.3 hPa | 0 mm | 0.45 m/s, 237° | 0 W/m² | - |
| 1788369529 | 27.78° C | 86% | 1011.4 hPa | 0 mm | 0.45 m/s, 204° | 0 W/m² | - |
| 1788369468 | 27.78° C | 85% | 1011.4 hPa | 0 mm | 0 m/s | 0 W/m² | - |
| 1788369407 | 27.78° C | 85% | 1011.4 hPa | 0 mm | 0.89 m/s, 237° | 0 W/m² | - |
| 1788369346 | 27.78° C | 85% | 1011.3 hPa | 0 mm | 0.45 m/s, 236° | 0 W/m² | - |
| 1788369285 | 27.78° C | 85% | 1011.5 hPa | 0 mm | 0.45 m/s, 240° | 0 W/m² | - |
| 1788369224 | 27.78° C | 85% | 1011.3 hPa | 0 mm | 0.45 m/s, 243° | 0 W/m² | - |
| 1788369163 | 27.78° C | 85% | 1011.2 hPa | 0 mm | 0.89 m/s, 199° | 0 W/m² | - |
| 1788369102 | 27.78° C | 85% | 1011.3 hPa | 0 mm | 0 m/s | 0 W/m² | - |
| 1788369041 | 27.78° C | 85% | 1011.2 hPa | 0 mm | 0 m/s | 0 W/m² | - |
| 1788368980 | 27.78° C | 85% | 1011.4 hPa | 0 mm | 0.45 m/s, 269° | 0 W/m² | - |
| 1788368919 | 27.78° C | 85% | 1011.3 hPa | 0 mm | 0.45 m/s, 252° | 0 W/m² | - |
| 1788368859 | 27.78° C | 85% | 1011.2 hPa | 0 mm | 0.45 m/s, 150° | 0 W/m² | - |
| 1788368797 | 27.78° C | 85% | 1011.4 hPa | 0 mm | 0.89 m/s, 222° | 0 W/m² | - |
| 1788368736 | 27.78° C | 85% | 1011.3 hPa | 0 mm | 0.45 m/s, 242° | 0 W/m² | - |
| 1788368676 | 27.78° C | 85% | 1011.2 hPa | 0 mm | 0.45 m/s, 237° | 0 W/m² | - |
| 1788368614 | 27.78° C | 85% | 1011.3 hPa | 0 mm | 0.45 m/s, 218° | 0 W/m² | - |
| 1788368554 | 27.78° C | 85% | 1011.6 hPa | 0 mm | 0.89 m/s, 219° | 0 W/m² | - |
| 1788368492 | 27.78° C | 85% | 1011.4 hPa | 0 mm | 0.89 m/s, 251° | 0 W/m² | - |
| 1788368431 | 27.78° C | 85% | 1011.4 hPa | 0 mm | 0.89 m/s, 219° | 0 W/m² | - |
| 1788368370 | 27.78° C | 85% | 1011.4 hPa | 0 mm | 0 m/s | 0 W/m² | - |
| 1788368309 | 27.78° C | 85% | 1011.4 hPa | 0 mm | 0.45 m/s, 236° | 0 W/m² | - |
| 1788368248 | 27.78° C | 85% | 1011.6 hPa | 0 mm | 0.89 m/s, 213° | 0 W/m² | - |
| 1788368187 | 27.78° C | 85% | 1011.2 hPa | 0 mm | 0.45 m/s, 359° | 0 W/m² | - |
* Rain latest hour (hover to see other rain measurements)
** Current wind speed in m/s (hover to see current wind gust speed)